Location: ??? ?????
(30.6482°N, 60.5850°E)
Time: 18:27:26
(UTC+00:00)

Resurs 01 Rocket - Pass Details

Date: 09 April 2020
Orbit: 634 x 644 km, 98.0° (Epoch: 06 June)

Event Time Altitude Azimuth Distance (km) Brightness Sun altitude
Exits shadow 16:02:36 24° 43° (NE) 1,319 3.0 -21.5°
Drops below altitude 10° 16:05:05 10° 14° (NNE) 2,025 4.3 -22.0°
Sets 16:07:31 0° 2° (N) 2,938 5.3 -22.5°
